Regional Weather Roundup
Issued by NWS

Home | Current Version | Previous Version | Graphics & Text | Print | Product List | Glossary On
Versions: 1 2 3 4 5 6 7 8 9 10 11 12 13 14 15 16 17 18 19 20 21 22 23 24 25 26 27 28 29 30 31 32 33 34 35 36 37 38 39 40 41 42 43 44 45 46 47 48 49 50
000
ASUS45 KSLC 291710
RWRUT

UTAH REGIONAL WEATHER ROUNDUP
NATIONAL WEATHER SERVICE SALT LAKE CITY UT
1100 AM MDT TUE JUL 29 2014

UTZ001>011-023>025-291800-

NORTHERN UTAH

CITY           SKY/WX    TMP DP  RH WIND       PRES   REMARKS
HILL AFB       LGT RAIN  64  57  77 SE9       30.25R
LOGAN          CLOUDY    65  61  87 N3        30.24S
OGDEN          CLOUDY    68  59  73 S12       30.22S
PROVO AIRPORT  PTSUNNY   73  59  60 CALM      30.22F
SALT LAKE CITY CLOUDY    70  64  81 N8        30.21R
VERNAL         CLOUDY    68  57  68 CALM      30.28F
WENDOVER       CLOUDY    70  61  73 SE5       30.23S
HEBER CITY     CLOUDY    68  55  64 CALM      30.27F
WEST JORDAN    PTSUNNY   73  66  78 NW7       30.23S

$$

UTZ012>022-026-027-291800-

SOUTHERN UTAH

CITY           SKY/WX    TMP DP  RH WIND       PRES   REMARKS
BRYCE CANYON   MOSUNNY   64  54  69 SE7       30.43S
CEDAR CITY     MOSUNNY   76  51  41 SW12      30.27F
MILFORD        PTSUNNY   78  54  43 SW10      30.23S
MOAB/CYNLANDS  SUNNY     74  62  66 E6        30.23F
PRICE          PTSUNNY   69  56  62 E3        30.32S
ST GEORGE      CLOUDY    88  54  31 CALM      30.13S
KANAB            N/A     79  54  41 CALM      30.29S

$$

REGIONAL REPORTS     COLORADO/ARIZONA

CITY           SKY/WX    TMP DP  RH WIND       PRES   REMARKS
CRAIG, CO      LGT RAIN  59  59 100 SW5       30.35S
GRAND JUNCTION CLOUDY    67  61  81 SE3       30.28F
RIFLE          LGT RAIN  64  60  87 CALM      30.34S
MONTROSE       PTSUNNY   67  60  78 CALM      30.36S
CORTEZ         PTSUNNY   71  56  58 CALM      30.33F
PAGE, AZ       SUNNY     85  53  33 VRB5      30.21S
GRAND CANYON   MOSUNNY   76  50  40 MISG      30.39S
KINGMAN        SUNNY     90  54  29 SW12      30.15S
FLAGSTAFF      MOSUNNY   73  50  44 SW8       30.42R

$$

REGIONAL REPORTS    NEVADA/IDAHO/WYOMING

CITY           SKY/WX    TMP DP  RH WIND       PRES   REMARKS
LAS VEGAS, NV  MOSUNNY   90  58  33 VRB3      30.03S
ELY            CLOUDY    65  54  67 NE5       30.35R
ELKO           MOSUNNY   77  50  38 S8        30.24F
POCATELLO, ID  PTSUNNY   67  63  87 NE5       30.24S
BURLEY         PTSUNNY   76  59  55 NE7       30.18S
EVANSTON, WY   RAIN      58  56  93 E3        30.38R FOG
ROCK SPRINGS   LGT RAIN  65  52  62 E18       30.35S

$$



USA.gov is the U.S. government's official web portal to all federal, state and local government web resources and services.